Time,TemperatureF,DewpointF,PressureIn,WindDirection,WindDirectionDegrees,WindSpeedMPH,WindSpeedGustMPH,Humidity,HourlyPrecipIn,Conditions,Clouds,dailyrainin,SoftwareType,DateUTC
2013-04-16 00:00:00,41.3,36.8,29.97,NW,315,1.8,5.4,84,0.00,,---,0.41,VWS V14.01,2013-04-16 05:00:00,
2013-04-16 00:05:00,41.3,36.8,29.98,NW,309,5.4,5.4,84,0.00,,---,0.00,VWS V14.01,2013-04-16 05:05:00,
2013-04-16 00:10:00,41.3,36.8,29.98,NW,309,0.0,9.0,84,0.00,,---,0.00,VWS V14.01,2013-04-16 05:10:00,
2013-04-16 00:15:00,41.3,36.5,29.98,NW,326,0.0,7.2,83,0.00,,---,0.00,VWS V14.01,2013-04-16 05:15:00,
2013-04-16 00:20:00,41.3,36.8,29.99,WNW,283,0.0,0.0,84,0.00,,---,0.00,VWS V14.01,2013-04-16 05:20:00,
2013-04-16 00:25:00,41.2,36.7,29.99,WNW,284,0.0,0.0,84,0.00,,---,0.00,VWS V14.01,2013-04-16 05:25:00,
2013-04-16 00:30:00,41.1,36.5,29.99,WNW,284,0.0,0.0,84,0.00,,---,0.00,VWS V14.01,2013-04-16 05:30:00,
2013-04-16 00:35:00,41.1,36.5,30.00,WNW,284,0.0,0.0,84,0.00,,---,0.00,VWS V14.01,2013-04-16 05:35:00,
2013-04-16 00:40:00,41.1,36.5,30.00,NW,304,0.0,0.0,84,0.00,,---,0.00,VWS V14.01,2013-04-16 05:40:00,
2013-04-16 00:45:00,41.2,36.9,30.01,WNW,303,0.0,0.0,85,0.00,,---,0.00,VWS V14.01,2013-04-16 05:45:00,
2013-04-16 00:50:00,41.2,36.9,30.00,NW,321,0.0,3.6,85,0.00,,---,0.00,VWS V14.01,2013-04-16 05:50:00,
2013-04-16 00:55:00,41.2,36.9,30.01,West,270,1.8,3.6,85,0.00,,---,0.00,VWS V14.01,2013-04-16 05:55:00,
2013-04-16 01:00:00,41.3,36.8,30.01,NW,311,1.8,3.6,84,0.00,,---,0.00,VWS V14.01,2013-04-16 06:00:00,
2013-04-16 01:05:00,41.3,36.8,30.00,WNW,288,0.0,3.6,84,0.00,,---,0.00,VWS V14.01,2013-04-16 06:05:00,
2013-04-16 01:09:00,41.3,36.8,29.99,NW,314,3.6,3.6,84,0.00,,---,0.00,VWS V14.01,2013-04-16 06:09:00,
2013-04-16 01:15:00,41.3,36.8,29.99,WNW,293,3.6,5.4,84,0.00,,---,0.00,VWS V14.01,2013-04-16 06:15:00,
2013-04-16 01:19:00,41.3,36.8,29.99,NNW,345,3.6,3.6,84,0.00,,---,0.00,VWS V14.01,2013-04-16 06:19:00,
2013-04-16 01:24:00,41.2,36.7,29.98,NW,316,0.0,5.4,84,0.00,,---,0.00,VWS V14.01,2013-04-16 06:24:00,
2013-04-16 01:29:00,41.3,36.8,29.98,NW,314,1.8,1.8,84,0.00,,---,0.00,VWS V14.01,2013-04-16 06:29:00,
2013-04-16 01:34:00,41.1,36.3,29.99,NNW,332,3.6,5.4,83,0.00,,---,0.00,VWS V14.01,2013-04-16 06:34:00,
2013-04-16 01:39:00,40.9,36.4,29.99,NW,325,1.8,5.4,84,0.00,,---,0.00,VWS V14.01,2013-04-16 06:39:00,
2013-04-16 01:44:00,40.8,36.3,30.00,NW,304,1.8,3.6,84,0.00,,---,0.00,VWS V14.01,2013-04-16 06:44:00,
2013-04-16 01:49:00,40.7,36.2,30.00,NW,319,1.8,7.2,84,0.00,,---,0.00,VWS V14.01,2013-04-16 06:49:00,
2013-04-16 01:54:00,40.6,36.1,30.01,NW,317,0.0,1.8,84,0.00,,---,0.00,VWS V14.01,2013-04-16 06:54:00,
2013-04-16 01:59:00,40.5,36.0,30.01,NW,314,1.8,3.6,84,0.00,,---,0.00,VWS V14.01,2013-04-16 06:59:00,
2013-04-16 02:04:00,40.4,35.9,30.01,WNW,293,1.8,1.8,84,0.00,,---,0.00,VWS V14.01,2013-04-16 07:04:00,
2013-04-16 02:09:00,40.3,35.8,30.01,WNW,300,0.0,5.4,84,0.00,,---,0.00,VWS V14.01,2013-04-16 07:09:00,
2013-04-16 02:14:00,40.2,35.7,30.02,NW,304,3.6,3.6,84,0.00,,---,0.00,VWS V14.01,2013-04-16 07:14:00,
2013-04-16 02:19:00,40.1,35.6,30.02,NW,316,3.6,3.6,84,0.00,,---,0.00,VWS V14.01,2013-04-16 07:19:00,
2013-04-16 02:24:00,40.0,35.8,30.02,NW,318,3.6,5.4,85,0.00,,---,0.00,VWS V14.01,2013-04-16 07:24:00,
2013-04-16 02:29:00,39.9,35.7,30.02,NW,312,3.6,3.6,85,0.00,,---,0.00,VWS V14.01,2013-04-16 07:29:00,
2013-04-16 02:34:00,39.8,35.6,30.03,NW,317,1.8,3.6,85,0.00,,---,0.00,VWS V14.01,2013-04-16 07:34:00,
2013-04-16 02:39:00,39.7,35.5,30.03,WNW,293,3.6,5.4,85,0.00,,---,0.00,VWS V14.01,2013-04-16 07:39:00,
2013-04-16 02:44:00,39.6,35.4,30.03,NW,321,1.8,5.4,85,0.00,,---,0.00,VWS V14.01,2013-04-16 07:44:00,
2013-04-16 02:49:00,39.5,35.0,30.03,NW,312,3.6,5.4,84,0.00,,---,0.00,VWS V14.01,2013-04-16 07:49:00,
2013-04-16 02:54:00,39.4,34.9,30.03,NW,314,1.8,5.4,84,0.00,,---,0.00,VWS V14.01,2013-04-16 07:54:00,
2013-04-16 02:59:00,39.3,34.5,30.03,NW,314,0.0,0.0,83,0.00,,---,0.00,VWS V14.01,2013-04-16 07:59:00,
2013-04-16 03:04:00,39.1,34.3,30.03,NNW,347,1.8,3.6,83,0.00,,---,0.00,VWS V14.01,2013-04-16 08:04:00,
2013-04-16 03:09:00,39.1,34.3,30.03,NW,323,3.6,5.4,83,0.00,,---,0.00,VWS V14.01,2013-04-16 08:09:00,
2013-04-16 03:14:00,39.0,33.9,30.03,WNW,283,3.6,5.4,82,0.00,,---,0.00,VWS V14.01,2013-04-16 08:14:00,
2013-04-16 03:19:00,38.9,33.8,30.03,NW,316,3.6,5.4,82,0.00,,---,0.00,VWS V14.01,2013-04-16 08:19:00,
2013-04-16 03:24:00,38.8,33.7,30.03,NW,318,1.8,5.4,82,0.00,,---,0.00,VWS V14.01,2013-04-16 08:24:00,
2013-04-16 03:29:00,38.6,33.8,30.04,NW,321,1.8,5.4,83,0.00,,---,0.00,VWS V14.01,2013-04-16 08:29:00,
2013-04-16 03:34:00,38.5,33.7,30.04,NW,321,1.8,3.6,83,0.00,,---,0.00,VWS V14.01,2013-04-16 08:34:00,
2013-04-16 03:39:00,38.4,33.9,30.05,NW,309,0.0,3.6,84,0.00,,---,0.00,VWS V14.01,2013-04-16 08:39:00,
2013-04-16 03:44:00,38.2,33.7,30.05,NW,308,0.0,1.8,84,0.00,,---,0.00,VWS V14.01,2013-04-16 08:44:00,
2013-04-16 03:49:00,38.1,33.6,30.05,NW,308,0.0,1.8,84,0.00,,---,0.00,VWS V14.01,2013-04-16 08:49:00,
2013-04-16 03:54:00,37.9,33.4,30.05,NW,308,0.0,1.8,84,0.00,,---,0.00,VWS V14.01,2013-04-16 08:54:00,
2013-04-16 03:59:00,37.7,33.5,30.05,NW,308,0.0,1.8,85,0.00,,---,0.00,VWS V14.01,2013-04-16 08:59:00,
2013-04-16 04:04:00,37.7,33.5,30.05,NW,310,1.8,1.8,85,0.00,,---,0.00,VWS V14.01,2013-04-16 09:04:00,
2013-04-16 04:09:00,37.5,33.0,30.06,NW,309,0.0,1.8,84,0.00,,---,0.00,VWS V14.01,2013-04-16 09:09:00,
2013-04-16 04:14:00,37.4,32.9,30.06,NW,310,0.0,0.0,84,0.00,,---,0.00,VWS V14.01,2013-04-16 09:14:00,
2013-04-16 04:19:00,37.2,32.7,30.06,NW,311,1.8,3.6,84,0.00,,---,0.00,VWS V14.01,2013-04-16 09:19:00,
2013-04-16 04:24:00,37.1,32.6,30.06,NW,312,1.8,1.8,84,0.00,,---,0.00,VWS V14.01,2013-04-16 09:24:00,
2013-04-16 04:29:00,37.0,32.3,30.06,NW,307,1.8,1.8,83,0.00,,---,0.00,VWS V14.01,2013-04-16 09:29:00,
2013-04-16 04:34:00,36.9,31.9,30.06,NW,307,1.8,3.6,82,0.00,,---,0.00,VWS V14.01,2013-04-16 09:34:00,
2013-04-16 04:39:00,36.8,31.8,30.06,NW,319,0.0,3.6,82,0.00,,---,0.00,VWS V14.01,2013-04-16 09:39:00,
2013-04-16 04:44:00,36.6,31.3,30.07,NW,311,0.0,0.0,81,0.00,,---,0.00,VWS V14.01,2013-04-16 09:44:00,
2013-04-16 04:49:00,36.5,31.2,30.07,NW,314,0.0,0.0,81,0.00,,---,0.00,VWS V14.01,2013-04-16 09:49:00,
2013-04-16 04:54:00,36.4,31.1,30.07,NW,313,0.0,0.0,81,0.00,,---,0.00,VWS V14.01,2013-04-16 09:54:00,
2013-04-16 04:59:00,36.3,31.0,30.07,NW,316,0.0,0.0,81,0.00,,---,0.00,VWS V14.01,2013-04-16 09:59:00,
2013-04-16 05:04:00,36.1,31.1,30.06,NW,318,0.0,0.0,82,0.00,,---,0.00,VWS V14.01,2013-04-16 10:04:00,
2013-04-16 05:09:00,35.9,30.9,30.06,NW,317,0.0,0.0,82,0.00,,---,0.00,VWS V14.01,2013-04-16 10:09:00,
2013-04-16 05:14:00,35.7,30.7,30.06,NW,317,0.0,0.0,82,0.00,,---,0.00,VWS V14.01,2013-04-16 10:14:00,
2013-04-16 05:19:00,35.4,30.4,30.07,NW,317,0.0,0.0,82,0.00,,---,0.00,VWS V14.01,2013-04-16 10:19:00,
2013-04-16 05:24:00,35.2,30.5,30.07,NW,318,0.0,0.0,83,0.00,,---,0.00,VWS V14.01,2013-04-16 10:24:00,
2013-04-16 05:29:00,35.2,30.5,30.07,NW,317,0.0,0.0,83,0.00,,---,0.00,VWS V14.01,2013-04-16 10:29:00,
2013-04-16 05:34:00,35.2,30.2,30.08,NW,318,0.0,0.0,82,0.00,,---,0.00,VWS V14.01,2013-04-16 10:34:00,
2013-04-16 05:39:00,35.2,30.2,30.08,NW,318,0.0,0.0,82,0.00,,---,0.00,VWS V14.01,2013-04-16 10:39:00,
2013-04-16 05:44:00,35.2,30.2,30.08,NW,317,0.0,0.0,82,0.00,,---,0.00,VWS V14.01,2013-04-16 10:44:00,
2013-04-16 05:49:00,35.2,30.2,30.09,NW,326,1.8,3.6,82,0.00,,---,0.00,VWS V14.01,2013-04-16 10:49:00,
2013-04-16 05:54:00,35.1,30.1,30.09,NW,321,0.0,1.8,82,0.00,,---,0.00,VWS V14.01,2013-04-16 10:54:00,
2013-04-16 05:59:00,35.0,30.0,30.09,NW,316,0.0,0.0,82,0.00,,---,0.00,VWS V14.01,2013-04-16 10:59:00,
2013-04-16 06:04:00,35.0,30.0,30.10,WNW,302,0.0,0.0,82,0.00,,---,0.00,VWS V14.01,2013-04-16 11:04:00,
2013-04-16 06:09:00,34.9,29.6,30.10,NW,315,0.0,0.0,81,0.00,,---,0.00,VWS V14.01,2013-04-16 11:09:00,
2013-04-16 06:14:00,34.9,29.6,30.10,NW,315,0.0,0.0,81,0.00,,---,0.00,VWS V14.01,2013-04-16 11:14:00,
2013-04-16 06:19:00,34.8,29.8,30.11,NW,315,0.0,0.0,82,0.00,,---,0.00,VWS V14.01,2013-04-16 11:19:00,
2013-04-16 06:24:00,34.6,29.6,30.11,NW,315,0.0,0.0,82,0.00,,---,0.00,VWS V14.01,2013-04-16 11:24:00,
2013-04-16 06:29:00,34.5,29.5,30.11,NW,314,0.0,0.0,82,0.00,,---,0.00,VWS V14.01,2013-04-16 11:29:00,
2013-04-16 06:34:00,34.4,29.4,30.11,NW,314,0.0,0.0,82,0.00,,---,0.00,VWS V14.01,2013-04-16 11:34:00,
2013-04-16 06:39:00,34.4,29.4,30.11,NW,314,0.0,0.0,82,0.00,,---,0.00,VWS V14.01,2013-04-16 11:39:00,
2013-04-16 06:44:00,34.5,29.5,30.11,NW,316,0.0,0.0,82,0.00,,---,0.00,VWS V14.01,2013-04-16 11:44:00,
2013-04-16 06:49:00,34.6,29.6,30.12,NW,316,0.0,0.0,82,0.00,,---,0.00,VWS V14.01,2013-04-16 11:49:00,
2013-04-16 06:54:00,34.6,29.4,30.12,NW,315,0.0,0.0,81,0.00,,---,0.00,VWS V14.01,2013-04-16 11:54:00,
2013-04-16 06:59:00,34.6,29.4,30.12,NW,314,0.0,0.0,81,0.00,,---,0.00,VWS V14.01,2013-04-16 11:59:00,
2013-04-16 07:04:00,34.7,29.5,30.12,NW,316,1.8,3.6,81,0.00,,---,0.00,VWS V14.01,2013-04-16 12:04:00,
2013-04-16 07:09:00,35.0,29.7,30.12,NW,316,0.0,1.8,81,0.00,,---,0.00,VWS V14.01,2013-04-16 12:09:00,
2013-04-16 07:14:00,35.3,30.0,30.13,WSW,238,0.0,0.0,81,0.00,,---,0.00,VWS V14.01,2013-04-16 12:14:00,
2013-04-16 07:19:00,35.6,30.0,30.13,WSW,238,0.0,0.0,80,0.00,,---,0.00,VWS V14.01,2013-04-16 12:19:00,
2013-04-16 07:24:00,35.9,30.3,30.13,NW,315,0.0,3.6,80,0.00,,---,0.00,VWS V14.01,2013-04-16 12:24:00,
2013-04-16 07:29:00,36.2,30.3,30.13,NW,321,1.8,5.4,79,0.00,,---,0.00,VWS V14.01,2013-04-16 12:29:00,
2013-04-16 07:34:00,36.5,30.9,30.14,NW,307,1.8,3.6,80,0.00,,---,0.00,VWS V14.01,2013-04-16 12:34:00,
2013-04-16 07:39:00,36.8,30.9,30.14,NW,306,0.0,5.4,79,0.00,,---,0.00,VWS V14.01,2013-04-16 12:39:00,
2013-04-16 07:44:00,37.1,30.9,30.15,NNW,335,3.6,5.4,78,0.00,,---,0.00,VWS V14.01,2013-04-16 12:44:00,
2013-04-16 07:49:00,37.3,31.1,30.14,NW,317,1.8,5.4,78,0.00,,---,0.00,VWS V14.01,2013-04-16 12:49:00,
2013-04-16 07:54:00,37.6,31.1,30.14,WNW,299,3.6,5.4,77,0.00,,---,0.00,VWS V14.01,2013-04-16 12:54:00,
2013-04-16 07:59:00,37.9,31.4,30.14,NW,313,5.4,7.2,77,0.00,,---,0.00,VWS V14.01,2013-04-16 12:59:00,
2013-04-16 08:04:00,38.2,31.4,30.14,NW,304,3.6,5.4,76,0.00,,---,0.00,VWS V14.01,2013-04-16 13:04:00,
2013-04-16 08:09:00,38.5,31.4,30.14,WNW,293,3.6,7.2,75,0.00,,---,0.00,VWS V14.01,2013-04-16 13:09:00,
2013-04-16 08:14:00,39.0,32.2,30.14,NW,309,5.4,9.0,76,0.00,,---,0.00,VWS V14.01,2013-04-16 13:14:00,
2013-04-16 08:19:00,39.5,32.3,30.15,NW,313,5.4,7.2,75,0.00,,---,0.00,VWS V14.01,2013-04-16 13:19:00,
2013-04-16 08:24:00,39.8,32.0,30.14,NNW,347,1.8,12.6,73,0.00,,---,0.00,VWS V14.01,2013-04-16 13:24:00,
2013-04-16 08:29:00,39.8,31.4,30.14,North,7,3.6,5.4,72,0.00,,---,0.00,VWS V14.01,2013-04-16 13:29:00,
2013-04-16 08:34:00,40.2,31.8,30.12,North,359,3.6,7.2,72,0.00,,---,0.00,VWS V14.01,2013-04-16 13:34:00,
2013-04-16 08:39:00,40.5,32.1,30.10,NW,321,5.4,10.8,72,0.00,,---,0.00,VWS V14.01,2013-04-16 13:39:00,
2013-04-16 08:44:00,40.9,33.1,30.13,NNE,24,5.4,7.2,73,0.00,,---,0.00,VWS V14.01,2013-04-16 13:44:00,
2013-04-16 08:49:00,41.0,32.2,30.15,WNW,300,7.2,7.2,71,0.00,,---,0.00,VWS V14.01,2013-04-16 13:49:00,
2013-04-16 08:54:00,40.9,32.1,30.16,NW,310,1.8,3.6,71,0.00,,---,0.00,VWS V14.01,2013-04-16 13:54:00,
2013-04-16 08:59:00,40.7,31.6,30.16,NW,316,3.6,5.4,70,0.00,,---,0.00,VWS V14.01,2013-04-16 13:59:00,
2013-04-16 09:04:00,40.5,31.4,30.16,WNW,291,3.6,5.4,70,0.00,,---,0.00,VWS V14.01,2013-04-16 14:04:00,
2013-04-16 09:09:00,40.7,31.6,30.16,WSW,256,1.8,3.6,70,0.00,,---,0.00,VWS V14.01,2013-04-16 14:09:00,
2013-04-16 09:14:00,41.6,33.1,30.16,NW,314,0.0,5.4,72,0.00,,---,0.00,VWS V14.01,2013-04-16 14:14:00,
2013-04-16 09:19:00,42.0,32.8,30.18,NW,313,1.8,7.2,70,0.00,,---,0.00,VWS V14.01,2013-04-16 14:19:00,
2013-04-16 09:24:00,42.3,33.1,30.17,NNE,16,3.6,7.2,70,0.00,,---,0.00,VWS V14.01,2013-04-16 14:24:00,
2013-04-16 09:29:00,42.3,32.5,30.17,WNW,297,5.4,7.2,68,0.00,,---,0.00,VWS V14.01,2013-04-16 14:29:00,
2013-04-16 09:34:00,42.4,32.2,30.17,North,4,3.6,7.2,67,0.00,,---,0.00,VWS V14.01,2013-04-16 14:34:00,
2013-04-16 09:39:00,42.9,32.3,30.17,WNW,301,3.6,5.4,66,0.00,,---,0.00,VWS V14.01,2013-04-16 14:39:00,
2013-04-16 09:44:00,43.2,32.6,30.17,NNW,329,3.6,7.2,66,0.00,,---,0.00,VWS V14.01,2013-04-16 14:44:00,
2013-04-16 09:49:00,43.6,32.7,30.17,WNW,298,3.6,7.2,65,0.00,,---,0.00,VWS V14.01,2013-04-16 14:49:00,
2013-04-16 09:54:00,43.3,32.4,30.18,WNW,300,1.8,9.0,65,0.00,,---,0.00,VWS V14.01,2013-04-16 14:54:00,
2013-04-16 09:59:00,43.7,32.8,30.17,NNE,30,3.6,7.2,65,0.00,,---,0.00,VWS V14.01,2013-04-16 14:59:00,
2013-04-16 10:04:00,44.0,33.4,30.17,NNW,338,1.8,5.4,66,0.00,,---,0.00,VWS V14.01,2013-04-16 15:04:00,
2013-04-16 10:09:00,44.1,32.0,30.16,NNW,329,3.6,9.0,62,0.00,,---,0.00,VWS V14.01,2013-04-16 15:09:00,
2013-04-16 10:14:00,44.0,32.0,30.17,NW,319,3.6,10.8,62,0.00,,---,0.00,VWS V14.01,2013-04-16 15:14:00,
2013-04-16 10:19:00,43.8,31.8,30.17,NNW,345,5.4,7.2,62,0.00,,---,0.00,VWS V14.01,2013-04-16 15:19:00,
2013-04-16 10:24:00,44.0,32.3,30.16,NNW,329,5.4,7.2,63,0.00,,---,0.00,VWS V14.01,2013-04-16 15:24:00,
2013-04-16 10:29:00,44.2,31.8,30.17,NW,309,1.8,10.8,61,0.00,,---,0.00,VWS V14.01,2013-04-16 15:29:00,
2013-04-16 10:34:00,44.5,32.4,30.17,WNW,297,5.4,7.2,62,0.00,,---,0.00,VWS V14.01,2013-04-16 15:34:00,
2013-04-16 10:39:00,44.7,31.9,30.18,WNW,300,1.8,9.0,60,0.00,,---,0.00,VWS V14.01,2013-04-16 15:39:00,
2013-04-16 10:44:00,44.6,32.2,30.18,North,360,1.8,7.2,61,0.00,,---,0.00,VWS V14.01,2013-04-16 15:44:00,
2013-04-16 10:49:00,44.9,31.7,30.18,NNE,16,1.8,7.2,60,0.00,,---,0.00,VWS V14.01,2013-04-16 15:49:00,
2013-04-16 10:54:00,44.6,32.2,30.17,NW,321,5.4,7.2,61,0.00,,---,0.00,VWS V14.01,2013-04-16 15:54:00,
2013-04-16 10:59:00,44.4,32.0,30.18,North,4,3.6,9.0,61,0.00,,---,0.00,VWS V14.01,2013-04-16 15:59:00,
2013-04-16 11:04:00,44.3,31.5,30.18,North,355,7.2,10.8,60,0.00,,---,0.00,VWS V14.01,2013-04-16 16:04:00,
2013-04-16 11:09:00,44.4,32.7,30.18,NW,322,1.8,3.6,63,0.00,,---,0.00,VWS V14.01,2013-04-16 16:09:00,
2013-04-16 11:14:00,44.4,32.3,30.19,NW,316,1.8,5.4,62,0.00,,---,0.00,VWS V14.01,2013-04-16 16:14:00,
2013-04-16 11:19:00,44.6,32.5,30.19,WNW,293,3.6,3.6,62,0.00,,---,0.00,VWS V14.01,2013-04-16 16:19:00,
2013-04-16 11:24:00,44.5,32.4,30.19,North,1,1.8,9.0,62,0.00,,---,0.00,VWS V14.01,2013-04-16 16:24:00,
2013-04-16 11:29:00,44.4,32.3,30.19,NNW,344,5.4,5.4,62,0.00,,---,0.00,VWS V14.01,2013-04-16 16:29:00,
2013-04-16 11:34:00,44.3,32.2,30.18,North,7,3.6,5.4,62,0.00,,---,0.00,VWS V14.01,2013-04-16 16:34:00,
2013-04-16 11:39:00,44.2,32.2,30.19,NW,318,3.6,3.6,62,0.00,,---,0.00,VWS V14.01,2013-04-16 16:39:00,
2013-04-16 11:44:00,44.3,32.6,30.20,NW,314,3.6,7.2,63,0.00,,---,0.00,VWS V14.01,2013-04-16 16:44:00,
2013-04-16 11:49:00,44.4,32.7,30.20,NNW,342,1.8,5.4,63,0.00,,---,0.00,VWS V14.01,2013-04-16 16:49:00,
2013-04-16 11:54:00,44.9,32.8,30.20,NW,312,0.0,3.6,62,0.00,,---,0.00,VWS V14.01,2013-04-16 16:54:00,
2013-04-16 11:59:00,44.9,32.4,30.19,NE,42,1.8,7.2,61,0.00,,---,0.00,VWS V14.01,2013-04-16 16:59:00,
2013-04-16 12:04:00,44.9,32.4,30.19,ESE,110,3.6,7.2,61,0.00,,---,0.00,VWS V14.01,2013-04-16 17:04:00,
2013-04-16 12:09:00,45.0,32.5,30.19,ENE,68,1.8,3.6,61,0.00,,---,0.00,VWS V14.01,2013-04-16 17:09:00,
2013-04-16 12:14:00,45.3,32.8,30.19,NW,319,3.6,7.2,61,0.00,,---,0.00,VWS V14.01,2013-04-16 17:14:00,
2013-04-16 12:19:00,45.4,32.9,30.19,NNW,339,1.8,7.2,61,0.00,,---,0.00,VWS V14.01,2013-04-16 17:19:00,
2013-04-16 12:24:00,45.7,33.2,30.19,NW,314,5.4,7.2,61,0.00,,---,0.00,VWS V14.01,2013-04-16 17:24:00,
2013-04-16 12:29:00,45.5,33.4,30.18,NNW,338,1.8,3.6,62,0.00,,---,0.00,VWS V14.01,2013-04-16 17:29:00,
2013-04-16 12:34:00,45.6,33.1,30.19,NW,307,3.6,7.2,61,0.00,,---,0.00,VWS V14.01,2013-04-16 17:34:00,
2013-04-16 12:39:00,46.2,33.3,30.19,WNW,293,3.6,7.2,60,0.00,,---,0.00,VWS V14.01,2013-04-16 17:39:00,
2013-04-16 12:44:00,46.6,32.9,30.18,NW,317,5.4,5.4,59,0.00,,---,0.00,VWS V14.01,2013-04-16 17:44:00,
2013-04-16 12:49:00,46.6,32.9,30.19,NW,326,0.0,3.6,59,0.00,,---,0.00,VWS V14.01,2013-04-16 17:49:00,
2013-04-16 12:54:00,47.1,33.7,30.19,NW,321,3.6,7.2,60,0.00,,---,0.00,VWS V14.01,2013-04-16 17:54:00,
2013-04-16 12:59:00,47.7,34.3,30.18,WNW,300,7.2,7.2,60,0.00,,---,0.00,VWS V14.01,2013-04-16 17:59:00,
2013-04-16 13:04:00,48.7,34.5,30.18,West,264,1.8,5.4,58,0.00,,---,0.00,VWS V14.01,2013-04-16 18:04:00,
2013-04-16 13:09:00,49.2,33.2,30.18,NW,326,3.6,9.0,54,0.00,,---,0.00,VWS V14.01,2013-04-16 18:09:00,
2013-04-16 13:14:00,49.3,35.0,30.17,WNW,284,1.8,5.4,58,0.00,,---,0.00,VWS V14.01,2013-04-16 18:14:00,
2013-04-16 13:19:00,48.7,33.6,30.18,NW,319,3.6,9.0,56,0.00,,---,0.00,VWS V14.01,2013-04-16 18:19:00,
2013-04-16 13:24:00,48.8,34.5,30.17,NW,307,5.4,5.4,58,0.00,,---,0.00,VWS V14.01,2013-04-16 18:24:00,
2013-04-16 13:29:00,49.0,34.7,30.17,NNW,342,1.8,5.4,58,0.00,,---,0.00,VWS V14.01,2013-04-16 18:29:00,
2013-04-16 13:34:00,49.3,33.8,30.17,North,4,0.0,5.4,55,0.00,,---,0.00,VWS V14.01,2013-04-16 18:34:00,
2013-04-16 13:39:00,49.1,33.6,30.17,NW,325,1.8,5.4,55,0.00,,---,0.00,VWS V14.01,2013-04-16 18:39:00,
2013-04-16 13:44:00,49.1,33.2,30.17,NE,43,1.8,9.0,54,0.00,,---,0.00,VWS V14.01,2013-04-16 18:44:00,
2013-04-16 13:49:00,48.7,33.6,30.17,NW,304,0.0,3.6,56,0.00,,---,0.00,VWS V14.01,2013-04-16 18:49:00,
2013-04-16 13:54:00,48.9,33.4,30.16,NW,320,3.6,5.4,55,0.00,,---,0.00,VWS V14.01,2013-04-16 18:54:00,
2013-04-16 13:59:00,49.1,34.4,30.16,NW,311,1.8,3.6,57,0.00,,---,0.00,VWS V14.01,2013-04-16 18:59:00,
2013-04-16 14:04:00,49.6,34.5,30.17,NNW,336,1.8,5.4,56,0.00,,---,0.00,VWS V14.01,2013-04-16 19:04:00,
2013-04-16 14:09:00,50.5,34.9,30.17,NW,313,5.4,10.8,55,0.00,,---,0.00,VWS V14.01,2013-04-16 19:09:00,
2013-04-16 14:14:00,50.6,34.6,30.17,NE,39,3.6,5.4,54,0.00,,---,0.00,VWS V14.01,2013-04-16 19:14:00,
2013-04-16 14:19:00,50.4,34.4,30.17,NW,326,3.6,7.2,54,0.00,,---,0.00,VWS V14.01,2013-04-16 19:19:00,
2013-04-16 14:24:00,50.2,34.2,30.17,WNW,300,1.8,10.8,54,0.00,,---,0.00,VWS V14.01,2013-04-16 19:24:00,
2013-04-16 14:29:00,50.5,34.0,30.17,West,277,0.0,5.4,53,0.00,,---,0.00,VWS V14.01,2013-04-16 19:29:00,
2013-04-16 14:34:00,50.9,34.4,30.17,NW,317,1.8,9.0,53,0.00,,---,0.00,VWS V14.01,2013-04-16 19:34:00,
2013-04-16 14:39:00,50.7,32.9,30.17,NNW,338,1.8,7.2,50,0.00,,---,0.00,VWS V14.01,2013-04-16 19:39:00,
2013-04-16 14:44:00,50.6,33.7,30.17,WNW,291,3.6,9.0,52,0.00,,---,0.00,VWS V14.01,2013-04-16 19:44:00,
2013-04-16 14:49:00,51.0,34.0,30.17,ESE,122,3.6,10.8,52,0.00,,---,0.00,VWS V14.01,2013-04-16 19:49:00,
2013-04-16 14:54:00,51.4,34.4,30.17,NW,314,0.0,5.4,52,0.00,,---,0.00,VWS V14.01,2013-04-16 19:54:00,
2013-04-16 14:59:00,51.6,33.7,30.17,ESE,106,3.6,7.2,50,0.00,,---,0.00,VWS V14.01,2013-04-16 19:59:00,
2013-04-16 15:03:00,51.6,34.2,30.17,North,7,1.8,9.0,51,0.00,,---,0.00,VWS V14.01,2013-04-16 20:03:00,
2013-04-16 15:08:00,51.7,34.2,30.17,North,350,1.8,5.4,51,0.00,,---,0.00,VWS V14.01,2013-04-16 20:08:00,
2013-04-16 15:13:00,51.6,33.2,30.17,NNE,23,9.0,9.0,49,0.00,,---,0.00,VWS V14.01,2013-04-16 20:13:00,
2013-04-16 15:18:00,51.5,34.1,30.17,WNW,298,5.4,5.4,51,0.00,,---,0.00,VWS V14.01,2013-04-16 20:18:00,
2013-04-16 15:23:00,51.3,33.4,30.17,NNE,12,5.4,7.2,50,0.00,,---,0.00,VWS V14.01,2013-04-16 20:23:00,
2013-04-16 15:28:00,51.5,34.5,30.17,NW,305,7.2,7.2,52,0.00,,---,0.00,VWS V14.01,2013-04-16 20:28:00,
2013-04-16 15:33:00,51.8,34.8,30.16,North,359,7.2,7.2,52,0.00,,---,0.00,VWS V14.01,2013-04-16 20:33:00,
2013-04-16 15:38:00,51.8,33.9,30.16,NW,317,3.6,9.0,50,0.00,,---,0.00,VWS V14.01,2013-04-16 20:38:00,
2013-04-16 15:43:00,51.8,34.8,30.16,NNW,347,1.8,9.0,52,0.00,,---,0.00,VWS V14.01,2013-04-16 20:43:00,
2013-04-16 15:48:00,52.1,33.7,30.16,NW,307,5.4,5.4,49,0.00,,---,0.00,VWS V14.01,2013-04-16 20:48:00,
2013-04-16 15:53:00,52.1,33.7,30.16,NNW,339,1.8,5.4,49,0.00,,---,0.00,VWS V14.01,2013-04-16 20:53:00,
2013-04-16 15:58:00,52.3,34.3,30.17,ESE,120,1.8,5.4,50,0.00,,---,0.00,VWS V14.01,2013-04-16 20:58:00,
2013-04-16 16:03:00,52.3,33.9,30.17,North,1,0.0,7.2,49,0.00,,---,0.00,VWS V14.01,2013-04-16 21:03:00,
2013-04-16 16:08:00,52.1,34.2,30.17,NW,320,1.8,5.4,50,0.00,,---,0.00,VWS V14.01,2013-04-16 21:08:00,
2013-04-16 16:13:00,51.7,33.3,30.17,NNW,333,1.8,5.4,49,0.00,,---,0.00,VWS V14.01,2013-04-16 21:13:00,
2013-04-16 16:18:00,51.4,34.4,30.17,NNW,328,3.6,3.6,52,0.00,,---,0.00,VWS V14.01,2013-04-16 21:18:00,
2013-04-16 16:23:00,51.5,34.1,30.18,ESE,105,0.0,5.4,51,0.00,,---,0.00,VWS V14.01,2013-04-16 21:23:00,
2013-04-16 16:28:00,51.5,34.5,30.17,NW,315,3.6,5.4,52,0.00,,---,0.00,VWS V14.01,2013-04-16 21:28:00,
2013-04-16 16:33:00,51.4,35.3,30.17,East,96,0.0,3.6,54,0.00,,---,0.00,VWS V14.01,2013-04-16 21:33:00,
2013-04-16 16:38:00,51.4,34.9,30.17,ESE,117,1.8,5.4,53,0.00,,---,0.00,VWS V14.01,2013-04-16 21:38:00,
2013-04-16 16:43:00,51.5,35.4,30.17,SE,129,1.8,3.6,54,0.00,,---,0.00,VWS V14.01,2013-04-16 21:43:00,
2013-04-16 16:48:00,51.6,35.0,30.18,ESE,113,0.0,1.8,53,0.00,,---,0.00,VWS V14.01,2013-04-16 21:48:00,
2013-04-16 16:53:00,51.6,35.0,30.17,SE,124,0.0,3.6,53,0.00,,---,0.00,VWS V14.01,2013-04-16 21:53:00,
2013-04-16 16:58:00,51.6,35.0,30.17,ENE,58,1.8,1.8,53,0.00,,---,0.00,VWS V14.01,2013-04-16 21:58:00,
2013-04-16 17:03:00,51.6,34.6,30.17,North,350,1.8,7.2,52,0.00,,---,0.00,VWS V14.01,2013-04-16 22:03:00,
2013-04-16 17:08:00,51.6,35.5,30.17,North,349,1.8,3.6,54,0.00,,---,0.00,VWS V14.01,2013-04-16 22:08:00,
2013-04-16 17:13:00,51.5,35.4,30.17,East,97,1.8,5.4,54,0.00,,---,0.00,VWS V14.01,2013-04-16 22:13:00,
2013-04-16 17:18:00,51.6,35.5,30.17,ESE,104,3.6,5.4,54,0.00,,---,0.00,VWS V14.01,2013-04-16 22:18:00,
2013-04-16 17:23:00,51.8,35.7,30.17,ESE,112,1.8,1.8,54,0.00,,---,0.00,VWS V14.01,2013-04-16 22:23:00,
2013-04-16 17:28:00,51.9,35.8,30.17,ESE,104,0.0,5.4,54,0.00,,---,0.00,VWS V14.01,2013-04-16 22:28:00,
2013-04-16 17:33:00,52.0,35.9,30.17,NNE,27,0.0,3.6,54,0.00,,---,0.00,VWS V14.01,2013-04-16 22:33:00,
2013-04-16 17:38:00,52.0,35.9,30.17,North,5,0.0,0.0,54,0.00,,---,0.00,VWS V14.01,2013-04-16 22:38:00,
2013-04-16 17:43:00,51.8,35.2,30.17,SE,131,0.0,0.0,53,0.00,,---,0.00,VWS V14.01,2013-04-16 22:43:00,
2013-04-16 17:48:00,51.6,35.0,30.17,SE,129,0.0,0.0,53,0.00,,---,0.00,VWS V14.01,2013-04-16 22:48:00,
2013-04-16 17:53:00,51.6,35.5,30.17,SE,131,0.0,0.0,54,0.00,,---,0.00,VWS V14.01,2013-04-16 22:53:00,
2013-04-16 17:58:00,51.8,35.7,30.17,SE,131,0.0,0.0,54,0.00,,---,0.00,VWS V14.01,2013-04-16 22:58:00,
2013-04-16 18:03:00,51.9,35.8,30.17,SSE,167,0.0,0.0,54,0.00,,---,0.00,VWS V14.01,2013-04-16 23:03:00,
2013-04-16 18:08:00,51.8,36.1,30.17,South,186,0.0,0.0,55,0.00,,---,0.00,VWS V14.01,2013-04-16 23:08:00,
2013-04-16 18:13:00,51.7,36.0,30.17,ESE,117,0.0,0.0,55,0.00,,---,0.00,VWS V14.01,2013-04-16 23:13:00,
2013-04-16 18:18:00,51.7,36.0,30.17,ESE,117,0.0,0.0,55,0.00,,---,0.00,VWS V14.01,2013-04-16 23:18:00,
2013-04-16 18:23:00,51.6,35.9,30.17,ESE,117,0.0,0.0,55,0.00,,---,0.00,VWS V14.01,2013-04-16 23:23:00,
2013-04-16 18:28:00,51.6,35.9,30.17,ESE,117,0.0,0.0,55,0.00,,---,0.00,VWS V14.01,2013-04-16 23:28:00,
2013-04-16 18:33:00,51.4,36.2,30.17,ESE,117,0.0,0.0,56,0.00,,---,0.00,VWS V14.01,2013-04-16 23:33:00,
2013-04-16 18:38:00,51.2,36.8,30.17,ESE,117,0.0,0.0,58,0.00,,---,0.00,VWS V14.01,2013-04-16 23:38:00,
2013-04-16 18:43:00,51.1,36.3,30.17,ESE,117,0.0,0.0,57,0.00,,---,0.00,VWS V14.01,2013-04-16 23:43:00,
2013-04-16 18:48:00,51.0,36.2,30.17,ESE,117,0.0,0.0,57,0.00,,---,0.00,VWS V14.01,2013-04-16 23:48:00,
2013-04-16 18:53:00,51.0,36.6,30.17,ESE,117,0.0,0.0,58,0.00,,---,0.00,VWS V14.01,2013-04-16 23:53:00,
2013-04-16 18:58:00,51.0,36.6,30.17,ESE,117,0.0,0.0,58,0.00,,---,0.00,VWS V14.01,2013-04-16 23:58:00,
2013-04-16 19:03:00,50.9,36.1,30.17,ESE,117,0.0,0.0,57,0.00,,---,0.00,VWS V14.01,2013-04-17 00:03:00,
2013-04-16 19:08:00,50.9,36.9,30.17,ESE,117,0.0,0.0,59,0.00,,---,0.00,VWS V14.01,2013-04-17 00:08:00,
2013-04-16 19:13:00,50.9,36.5,30.17,ESE,117,0.0,0.0,58,0.00,,---,0.00,VWS V14.01,2013-04-17 00:13:00,
2013-04-16 19:18:00,50.8,36.8,30.17,ESE,117,0.0,0.0,59,0.00,,---,0.00,VWS V14.01,2013-04-17 00:18:00,
2013-04-16 19:23:00,50.8,36.4,30.17,ESE,117,0.0,0.0,58,0.00,,---,0.00,VWS V14.01,2013-04-17 00:23:00,
2013-04-16 19:28:00,50.8,36.8,30.18,ESE,117,0.0,0.0,59,0.00,,---,0.00,VWS V14.01,2013-04-17 00:28:00,
2013-04-16 19:33:00,50.7,37.1,30.17,ESE,117,0.0,0.0,60,0.00,,---,0.00,VWS V14.01,2013-04-17 00:33:00,
2013-04-16 19:38:00,50.7,36.3,30.18,ESE,117,0.0,0.0,58,0.00,,---,0.00,VWS V14.01,2013-04-17 00:38:00,
2013-04-16 19:43:00,50.6,36.6,30.18,ESE,117,0.0,0.0,59,0.00,,---,0.00,VWS V14.01,2013-04-17 00:43:00,
2013-04-16 19:48:00,50.6,37.0,30.18,ESE,117,0.0,0.0,60,0.00,,---,0.00,VWS V14.01,2013-04-17 00:48:00,
2013-04-16 19:53:00,50.6,37.4,30.19,ESE,117,0.0,0.0,60,0.00,,---,0.00,VWS V14.01,2013-04-17 00:53:00,
2013-04-16 19:58:00,50.6,37.4,30.18,ESE,117,0.0,0.0,60,0.00,,---,0.00,VWS V14.01,2013-04-17 00:58:00,
2013-04-16 20:03:00,50.5,37.3,30.17,ESE,117,0.0,0.0,60,0.00,,---,0.00,VWS V14.01,2013-04-17 01:03:00,
2013-04-16 20:08:00,50.5,37.7,30.18,ESE,117,0.0,0.0,61,0.00,,---,0.00,VWS V14.01,2013-04-17 01:08:00,
2013-04-16 20:13:00,50.4,37.6,30.18,ESE,117,0.0,0.0,61,0.00,,---,0.00,VWS V14.01,2013-04-17 01:13:00,
2013-04-16 20:18:00,50.4,38.0,30.18,ESE,117,0.0,0.0,62,0.00,,---,0.00,VWS V14.01,2013-04-17 01:18:00,
2013-04-16 20:23:00,50.3,37.9,30.18,ESE,117,0.0,0.0,62,0.00,,---,0.00,VWS V14.01,2013-04-17 01:23:00,
2013-04-16 20:28:00,50.2,37.4,30.19,ESE,117,0.0,0.0,61,0.00,,---,0.00,VWS V14.01,2013-04-17 01:28:00,
2013-04-16 20:33:00,50.2,37.8,30.18,ESE,117,0.0,0.0,62,0.00,,---,0.00,VWS V14.01,2013-04-17 01:33:00,
2013-04-16 20:38:00,50.2,38.6,30.19,ESE,117,0.0,0.0,64,0.00,,---,0.00,VWS V14.01,2013-04-17 01:38:00,
2013-04-16 20:43:00,50.1,38.1,30.19,ESE,117,0.0,0.0,63,0.00,,---,0.00,VWS V14.01,2013-04-17 01:43:00,
2013-04-16 20:48:00,50.1,37.7,30.19,ESE,117,0.0,0.0,62,0.00,,---,0.00,VWS V14.01,2013-04-17 01:48:00,
2013-04-16 20:53:00,50.1,38.5,30.19,ESE,117,0.0,0.0,64,0.00,,---,0.00,VWS V14.01,2013-04-17 01:53:00,
2013-04-16 20:58:00,50.1,38.8,30.19,ESE,117,0.0,0.0,65,0.00,,---,0.00,VWS V14.01,2013-04-17 01:58:00,
2013-04-16 21:03:00,50.1,38.5,30.20,ESE,117,0.0,0.0,64,0.00,,---,0.00,VWS V14.01,2013-04-17 02:03:00,
2013-04-16 21:08:00,50.0,38.0,30.20,ESE,117,0.0,0.0,63,0.00,,---,0.00,VWS V14.01,2013-04-17 02:08:00,
2013-04-16 21:13:00,50.1,38.8,30.20,ESE,117,0.0,0.0,65,0.00,,---,0.00,VWS V14.01,2013-04-17 02:13:00,
2013-04-16 21:18:00,50.1,38.8,30.20,ESE,117,0.0,0.0,65,0.00,,---,0.00,VWS V14.01,2013-04-17 02:18:00,
2013-04-16 21:23:00,50.1,38.8,30.21,ESE,117,0.0,0.0,65,0.00,,---,0.00,VWS V14.01,2013-04-17 02:23:00,
2013-04-16 21:28:00,50.0,38.8,30.20,ESE,117,0.0,0.0,65,0.00,,---,0.00,VWS V14.01,2013-04-17 02:28:00,
2013-04-16 21:33:00,50.0,39.5,30.20,ESE,117,0.0,0.0,67,0.00,,---,0.00,VWS V14.01,2013-04-17 02:33:00,
2013-04-16 21:38:00,50.1,39.9,30.20,ESE,117,0.0,0.0,68,0.00,,---,0.00,VWS V14.01,2013-04-17 02:38:00,
2013-04-16 21:43:00,50.0,39.5,30.20,ESE,117,0.0,0.0,67,0.00,,---,0.00,VWS V14.01,2013-04-17 02:43:00,
2013-04-16 21:48:00,50.0,39.5,30.21,ESE,117,0.0,0.0,67,0.00,,---,0.00,VWS V14.01,2013-04-17 02:48:00,
2013-04-16 21:53:00,49.9,39.4,30.21,ESE,117,0.0,0.0,67,0.00,,---,0.00,VWS V14.01,2013-04-17 02:53:00,
2013-04-16 21:58:00,49.9,39.0,30.21,ESE,117,0.0,0.0,66,0.00,,---,0.00,VWS V14.01,2013-04-17 02:58:00,
2013-04-16 22:03:00,49.9,40.1,30.21,ESE,117,0.0,0.0,69,0.00,,---,0.00,VWS V14.01,2013-04-17 03:03:00,
2013-04-16 22:08:00,50.0,40.5,30.21,ESE,117,0.0,0.0,70,0.00,,---,0.00,VWS V14.01,2013-04-17 03:08:00,
2013-04-16 22:13:00,49.9,40.1,30.21,ESE,117,0.0,0.0,69,0.00,,---,0.00,VWS V14.01,2013-04-17 03:13:00,
2013-04-16 22:18:00,49.9,40.4,30.21,ESE,117,0.0,0.0,70,0.00,,---,0.00,VWS V14.01,2013-04-17 03:18:00,
2013-04-16 22:23:00,49.8,40.3,30.21,ESE,117,0.0,0.0,70,0.00,,---,0.00,VWS V14.01,2013-04-17 03:23:00,
2013-04-16 22:28:00,49.8,41.0,30.21,ESE,117,0.0,0.0,72,0.00,,---,0.00,VWS V14.01,2013-04-17 03:28:00,
2013-04-16 22:33:00,49.8,41.0,30.21,ESE,117,0.0,0.0,72,0.00,,---,0.00,VWS V14.01,2013-04-17 03:33:00,
2013-04-16 22:38:00,49.7,40.9,30.21,ESE,117,0.0,0.0,72,0.00,,---,0.00,VWS V14.01,2013-04-17 03:38:00,
2013-04-16 22:43:00,49.7,40.6,30.20,ESE,117,0.0,0.0,71,0.00,,---,0.00,VWS V14.01,2013-04-17 03:43:00,
2013-04-16 22:48:00,49.7,40.2,30.21,ESE,117,0.0,0.0,70,0.00,,---,0.00,VWS V14.01,2013-04-17 03:48:00,
2013-04-16 22:53:00,49.8,39.6,30.21,ESE,117,0.0,0.0,68,0.00,,---,0.00,VWS V14.01,2013-04-17 03:53:00,
2013-04-16 22:58:00,49.9,40.1,30.20,ESE,117,0.0,0.0,69,0.00,,---,0.00,VWS V14.01,2013-04-17 03:58:00,
2013-04-16 23:00:00,49.9,40.1,30.20,ESE,117,0.0,0.0,69,0.00,,---,0.00,VWS V14.01,2013-04-17 04:00:00,
2013-04-16 23:05:00,49.9,40.4,30.21,NW,319,0.0,0.0,70,0.00,,---,0.00,VWS V14.01,2013-04-17 04:05:00,
2013-04-16 23:10:00,49.9,40.4,30.21,NW,319,0.0,0.0,70,0.00,,---,0.00,VWS V14.01,2013-04-17 04:10:00,
2013-04-16 23:15:00,49.9,40.4,30.21,NW,319,0.0,0.0,70,0.00,,---,0.00,VWS V14.01,2013-04-17 04:15:00,
2013-04-16 23:20:00,49.9,40.4,30.20,ESE,113,0.0,0.0,70,0.00,,---,0.00,VWS V14.01,2013-04-17 04:20:00,
2013-04-16 23:25:00,50.0,40.2,30.20,ESE,110,1.8,1.8,69,0.00,,---,0.00,VWS V14.01,2013-04-17 04:25:00,
2013-04-16 23:30:00,50.2,40.0,30.20,SE,124,0.0,10.8,68,0.00,,---,0.00,VWS V14.01,2013-04-17 04:30:00,
2013-04-16 23:35:00,50.2,40.0,30.21,SSW,192,3.6,7.2,68,0.00,,---,0.00,VWS V14.01,2013-04-17 04:35:00,
2013-04-16 23:40:00,50.3,39.8,30.21,East,91,1.8,7.2,67,0.00,,---,0.00,VWS V14.01,2013-04-17 04:40:00,
2013-04-16 23:45:00,50.3,39.4,30.21,East,97,7.2,9.0,66,0.00,,---,0.00,VWS V14.01,2013-04-17 04:45:00,
2013-04-16 23:50:00,50.4,39.1,30.22,ENE,77,5.4,12.6,65,0.00,,---,0.00,VWS V14.01,2013-04-17 04:50:00,
2013-04-16 23:55:00,50.4,39.5,30.22,ESE,108,1.8,10.8,66,0.00,,---,0.00,VWS V14.01,2013-04-17 04:55:00,